| time (UTC) | temp C | wind direction | speed KPH | gust KPH | rain 1hr cm | rain 24hr cm | rain mn cm | humidity % | barometer mb |
| 20260507030731 | 19 | 230 | 0.0 | 1.6 | 0.00 | 0.00 | 0.00 | 80 | 1011.2 |
| 20260507030229 | 18 | 257 | 1.6 | 3.2 | 0.00 | 0.00 | 0.00 | 81 | 1011.3 |
| 20260507025726 | 18 | 236 | 3.2 | 3.2 | 0.00 | 0.00 | 0.00 | 81 | 1011.1 |
| 20260507025223 | 18 | 214 | 4.8 | 9.7 | 0.00 | 0.00 | 0.00 | 82 | 1011.0 |
| 20260507024721 | 18 | 234 | 0.0 | 3.2 | 0.00 | 0.00 | 0.00 | 83 | 1011.2 |
| 20260507024218 | 18 | 239 | 0.0 | 3.2 | 0.00 | 0.00 | 0.00 | 84 | 1011.4 |
| 20260507023713 | 17 | 245 | 3.2 | 4.8 | 0.00 | 0.00 | 0.00 | 87 | 1011.2 |
| 20260507023211 | 16 | 232 | 1.6 | 1.6 | 0.00 | 0.00 | 0.00 | 89 | 1011.3 |
| 20260507022708 | 16 | 234 | 0.0 | 4.8 | 0.00 | 0.00 | 0.00 | 87 | 1011.1 |
| 20260507022204 | 16 | 222 | 0.0 | 0.0 | 0.00 | 0.00 | 0.00 | 87 | 1011.3 |
| 20260507021700 | 16 | 223 | 0.0 | 0.0 | 0.00 | 0.00 | 0.00 | 87 | 1011.6 |
| 20260507021155 | 15 | 219 | 0.0 | 0.0 | 0.00 | 0.00 | 0.00 | 86 | 1011.8 |
| 20260507020654 | 15 | 227 | 0.0 | 0.0 | 0.00 | 0.00 | 0.00 | 86 | 1011.7 |
| 20260507020150 | 15 | 227 | 0.0 | 0.0 | 0.00 | 0.00 | 0.00 | 86 | 1011.7 |
| 20260507015648 | 15 | 227 | 0.0 | 0.0 | 0.00 | 0.00 | 0.00 | 85 | 1011.7 |
| 20260507015145 | 15 | 227 | 0.0 | 0.0 | 0.00 | 0.00 | 0.00 | 85 | 1011.6 |
| 20260507014642 | 15 | 227 | 0.0 | 0.0 | 0.00 | 0.00 | 0.00 | 85 | 1011.7 |
| 20260507014138 | 15 | 227 | 0.0 | 0.0 | 0.00 | 0.00 | 0.00 | 84 | 1011.8 |
| 20260507013635 | 15 | 227 | 0.0 | 0.0 | 0.00 | 0.00 | 0.00 | 84 | 1011.4 |
| 20260507013132 | 15 | 227 | 0.0 | 0.0 | 0.00 | 0.00 | 0.00 | 84 | 1011.7 |
| 20260507012629 | 15 | 227 | 0.0 | 0.0 | 0.00 | 0.00 | 0.00 | 84 | 1011.8 |
| 20260507012124 | 15 | 227 | 0.0 | 0.0 | 0.00 | 0.00 | 0.00 | 84 | 1011.8 |
| 20260507011623 | 15 | 227 | 0.0 | 0.0 | 0.00 | 0.00 | 0.00 | 84 | 1012.1 |
| 20260507011119 | 15 | 227 | 0.0 | 0.0 | 0.00 | 0.00 | 0.00 | 84 | 1011.5 |
| 20260507010614 | 15 | 227 | 0.0 | 0.0 | 0.00 | 0.00 | 0.00 | 84 | 1011.2 |
| 20260507010110 | 15 | 228 | 0.0 | 0.0 | 0.00 | 0.00 | 0.00 | 84 | 1011.2 |
| 20260507005608 | 15 | 227 | 0.0 | 0.0 | 0.00 | 0.00 | 0.00 | 84 | 1011.6 |
| 20260507005103 | 15 | 228 | 0.0 | 0.0 | 0.00 | 0.00 | 0.00 | 83 | 1011.4 |
| 20260507004601 | 15 | 227 | 0.0 | 0.0 | 0.00 | 0.00 | 0.00 | 82 | 1011.5 |
| 20260507004058 | 15 | 234 | 0.0 | 0.0 | 0.00 | 0.00 | 0.00 | 82 | 1011.7 |
| 20260507003554 | 15 | 226 | 0.0 | 0.0 | 0.00 | 0.00 | 0.00 | 81 | 1011.2 |
| 20260507003049 | 15 | 211 | 0.0 | 0.0 | 0.00 | 0.00 | 0.00 | 81 | 1011.4 |
| 20260507002546 | 15 | 233 | 0.0 | 0.0 | 0.00 | 0.00 | 0.00 | 81 | 1011.5 |
| 20260507002042 | 15 | 233 | 0.0 | 0.0 | 0.00 | 0.00 | 0.00 | 81 | 1011.3 |
| 20260507001539 | 15 | 246 | 0.0 | 1.6 | 0.00 | 0.00 | 0.00 | 80 | 1011.4 |
| 20260507001036 | 15 | 203 | 1.6 | 1.6 | 0.00 | 0.00 | 0.00 | 80 | 1011.5 |
| 20260507000532 | 15 | 164 | 0.0 | 1.6 | 0.00 | 0.00 | 0.00 | 79 | 1011.4 |
| 20260507000028 | 16 | 233 | 0.0 | 1.6 | 0.00 | 0.00 | 0.00 | 80 | 1011.3 |
| 20260506235526 | 16 | 209 | 1.6 | 1.6 | 0.00 | 0.00 | 0.00 | 79 | 1011.5 |
| 20260506235021 | 16 | 229 | 0.0 | 1.6 | 0.00 | 0.00 | 0.00 | 79 | 1011.3 |
| 20260506234519 | 16 | 30 | 3.2 | 4.8 | 0.00 | 0.00 | 0.00 | 77 | 1011.1 |
| 20260506234016 | 16 | 135 | 1.6 | 1.6 | 0.00 | 0.00 | 0.00 | 76 | 1011.1 |
| 20260506233512 | 17 | 88 | 1.6 | 3.2 | 0.00 | 0.00 | 0.00 | 74 | 1010.9 |
| 20260506233009 | 18 | 227 | 0.0 | 3.2 | 0.00 | 0.00 | 0.00 | 71 | 1011.0 |
| 20260506232505 | 20 | 162 | 1.6 | 3.2 | 0.00 | 0.00 | 0.00 | 70 | 1010.6 |
| 20260506232001 | 20 | 226 | 4.8 | 6.4 | 0.00 | 0.00 | 0.00 | 72 | 1010.9 |
| 20260506231458 | 20 | 184 | 3.2 | 6.4 | 0.00 | 0.00 | 0.00 | 72 | 1010.9 |
| 20260506230956 | 20 | 209 | 1.6 | 11.3 | 0.00 | 0.00 | 0.00 | 72 | 1011.0 |
| 20260506230452 | 20 | 237 | 0.0 | 9.7 | 0.00 | 0.00 | 0.00 | 72 | 1010.7 |
| 20260506225949 | 20 | 223 | 3.2 | 6.4 | 0.00 | 0.00 | 0.00 | 71 | 1010.8 |
| 20260506225446 | 20 | 202 | 4.8 | 9.7 | 0.00 | 0.00 | 0.00 | 71 | 1011.0 |
| 20260506224943 | 20 | 231 | 3.2 | 4.8 | 0.00 | 0.00 | 0.00 | 71 | 1010.7 |
| 20260506224440 | 20 | 239 | 3.2 | 9.7 | 0.00 | 0.00 | 0.00 | 71 | 1010.8 |
| 20260506223936 | 20 | 213 | 1.6 | 3.2 | 0.00 | 0.00 | 0.00 | 71 | 1010.6 |
| 20260506223432 | 20 | 244 | 0.0 | 11.3 | 0.00 | 0.00 | 0.00 | 71 | 1010.9 |
| 20260506222930 | 20 | 217 | 3.2 | 11.3 | 0.00 | 0.00 | 0.00 | 71 | 1010.6 |
| 20260506222426 | 20 | 243 | 3.2 | 6.4 | 0.00 | 0.00 | 0.00 | 72 | 1010.8 |
| 20260506221923 | 20 | 233 | 0.0 | 4.8 | 0.00 | 0.00 | 0.00 | 73 | 1010.8 |
| 20260506221420 | 20 | 219 | 4.8 | 6.4 | 0.00 | 0.00 | 0.00 | 72 | 1010.9 |
| 20260506220918 | 20 | 221 | 1.6 | 4.8 | 0.00 | 0.00 | 0.00 | 72 | 1010.6 |
| 20260506220413 | 20 | 208 | 8.0 | 12.9 | 0.00 | 0.00 | 0.00 | 72 | 1010.6 |
| 20260506215910 | 20 | 216 | 3.2 | 4.8 | 0.00 | 0.00 | 0.00 | 72 | 1010.6 |
| 20260506215406 | 20 | 235 | 3.2 | 11.3 | 0.00 | 0.00 | 0.00 | 72 | 1010.6 |
| 20260506214902 | 20 | 234 | 3.2 | 6.4 | 0.00 | 0.00 | 0.00 | 73 | 1010.6 |
| 20260506214359 | 20 | 237 | 0.0 | 3.2 | 0.00 | 0.00 | 0.00 | 73 | 1010.5 |
| 20260506213857 | 20 | 209 | 3.2 | 4.8 | 0.00 | 0.00 | 0.00 | 73 | 1010.6 |
| 20260506213354 | 20 | 237 | 3.2 | 4.8 | 0.00 | 0.00 | 0.00 | 74 | 1010.5 |
| 20260506212851 | 20 | 219 | 3.2 | 4.8 | 0.00 | 0.00 | 0.00 | 74 | 1010.3 |
| 20260506212347 | 20 | 146 | 4.8 | 6.4 | 0.00 | 0.00 | 0.00 | 74 | 1010.2 |
| 20260506211842 | 20 | 197 | 4.8 | 9.7 | 0.00 | 0.00 | 0.00 | 74 | 1010.2 |
| 20260506211338 | 20 | 170 | 6.4 | 11.3 | 0.00 | 0.00 | 0.00 | 73 | 1010.3 |
| 20260506210836 | 20 | 203 | 8.0 | 11.3 | 0.00 | 0.00 | 0.00 | 73 | 1010.2 |
| 20260506210332 | 20 | 240 | 6.4 | 6.4 | 0.00 | 0.00 | 0.00 | 74 | 1010.2 |
| 20260506205830 | 20 | 189 | 3.2 | 4.8 | 0.00 | 0.00 | 0.00 | 74 | 1009.8 |
| 20260506205325 | 20 | 236 | 1.6 | 9.7 | 0.00 | 0.00 | 0.00 | 74 | 1010.2 |
| 20260506204822 | 20 | 236 | 3.2 | 6.4 | 0.00 | 0.00 | 0.00 | 74 | 1010.2 |
| 20260506204320 | 20 | 267 | 1.6 | 4.8 | 0.00 | 0.00 | 0.00 | 75 | 1010.4 |
| 20260506203817 | 20 | 232 | 3.2 | 4.8 | 0.00 | 0.00 | 0.00 | 75 | 1010.0 |
| 20260506203314 | 20 | 208 | 3.2 | 9.7 | 0.00 | 0.00 | 0.00 | 75 | 1010.4 |
| 20260506202811 | 19 | 270 | 3.2 | 9.7 | 0.00 | 0.00 | 0.00 | 75 | 1010.2 |
| 20260506202308 | 19 | 259 | 6.4 | 16.1 | 0.00 | 0.00 | 0.00 | 75 | 1010.3 |
| 20260506201804 | 19 | 223 | 3.2 | 11.3 | 0.00 | 0.00 | 0.00 | 75 | 1010.4 |
| 20260506201302 | 19 | 227 | 3.2 | 14.5 | 0.00 | 0.00 | 0.00 | 75 | 1010.3 |
| 20260506200759 | 19 | 200 | 4.8 | 9.7 | 0.00 | 0.00 | 0.00 | 75 | 1010.5 |
| 20260506200249 | 19 | 249 | 3.2 | 6.4 | 0.00 | 0.00 | 0.00 | 75 | 1010.5 |
| 20260506195746 | 19 | 223 | 8.0 | 12.9 | 0.00 | 0.00 | 0.00 | 76 | 1010.5 |
| 20260506195242 | 19 | 179 | 14.5 | 17.7 | 0.00 | 0.00 | 0.00 | 76 | 1010.6 |
| 20260506194740 | 18 | 195 | 8.0 | 14.5 | 0.00 | 0.00 | 0.00 | 76 | 1010.5 |
| 20260506194236 | 18 | 248 | 14.5 | 25.7 | 0.00 | 0.00 | 0.00 | 77 | 1010.6 |
| 20260506193734 | 18 | 233 | 4.8 | 9.7 | 0.00 | 0.00 | 0.00 | 78 | 1010.6 |
| 20260506193230 | 18 | 241 | 9.7 | 14.5 | 0.00 | 0.00 | 0.00 | 79 | 1010.8 |
| 20260506192727 | 18 | 155 | 8.0 | 12.9 | 0.00 | 0.00 | 0.00 | 80 | 1010.9 |
| 20260506192224 | 18 | 228 | 11.3 | 29.0 | 0.00 | 0.00 | 0.00 | 81 | 1011.1 |
| 20260506191721 | 18 | 221 | 17.7 | 25.7 | 0.00 | 0.00 | 0.00 | 80 | 1010.9 |
| 20260506191217 | 18 | 261 | 6.4 | 17.7 | 0.00 | 0.00 | 0.00 | 81 | 1010.9 |
| 20260506190714 | 18 | 204 | 3.2 | 11.3 | 0.00 | 0.00 | 0.00 | 83 | 1010.9 |
| 20260506190210 | 18 | 209 | 12.9 | 20.9 | 0.00 | 0.00 | 0.00 | 82 | 1011.0 |
| 20260506185707 | 18 | 206 | 11.3 | 16.1 | 0.00 | 0.00 | 0.00 | 82 | 1011.1 |
| 20260506185203 | 17 | 158 | 17.7 | 22.5 | 0.00 | 0.00 | 0.00 | 83 | 1011.0 |
| 20260506184701 | 18 | 203 | 3.2 | 4.8 | 0.00 | 0.00 | 0.00 | 79 | 1010.9 |
| 20260506184159 | 18 | 243 | 3.2 | 3.2 | 0.00 | 0.00 | 0.00 | 78 | 1011.0 |
| 20260506183655 | 18 | 273 | 3.2 | 6.4 | 0.00 | 0.00 | 0.00 | 79 | 1011.0 |
| 20260506183151 | 18 | 226 | 6.4 | 6.4 | 0.00 | 0.00 | 0.00 | 78 | 1010.8 |
| 20260506182649 | 17 | 232 | 0.0 | 3.2 | 0.00 | 0.00 | 0.00 | 79 | 1010.8 |
| 20260506182145 | 17 | 264 | 1.6 | 6.4 | 0.00 | 0.00 | 0.00 | 80 | 1011.0 |
| 20260506181643 | 17 | 235 | 1.6 | 9.7 | 0.00 | 0.00 | 0.00 | 80 | 1011.2 |
| 20260506181140 | 17 | 239 | 4.8 | 6.4 | 0.00 | 0.00 | 0.00 | 81 | 1011.1 |
| 20260506180637 | 17 | 211 | 1.6 | 4.8 | 0.00 | 0.00 | 0.00 | 82 | 1011.0 |
| 20260506180133 | 17 | 238 | 3.2 | 6.4 | 0.00 | 0.00 | 0.00 | 82 | 1011.4 |
| 20260506175630 | 17 | 190 | 3.2 | 3.2 | 0.00 | 0.00 | 0.00 | 83 | 1011.5 |
| 20260506175126 | 17 | 219 | 3.2 | 9.7 | 0.00 | 0.00 | 0.00 | 83 | 1011.6 |
| 20260506174625 | 17 | 17 | 1.6 | 4.8 | 0.00 | 0.00 | 0.00 | 83 | 1011.6 |
| 20260506174121 | 17 | 232 | 0.0 | 3.2 | 0.00 | 0.00 | 0.00 | 83 | 1011.5 |
| 20260506173619 | 17 | 36 | 1.6 | 9.7 | 0.00 | 0.00 | 0.00 | 82 | 1011.8 |
| 20260506173115 | 18 | 215 | 3.2 | 4.8 | 0.00 | 0.00 | 0.00 | 80 | 1011.5 |
| 20260506172613 | 18 | 281 | 1.6 | 3.2 | 0.00 | 0.00 | 0.00 | 79 | 1011.8 |
| 20260506172109 | 18 | 228 | 0.0 | 6.4 | 0.00 | 0.00 | 0.00 | 81 | 1011.7 |
| 20260506171607 | 18 | 225 | 3.2 | 4.8 | 0.00 | 0.00 | 0.00 | 82 | 1011.8 |
| 20260506171104 | 17 | 243 | 1.6 | 6.4 | 0.00 | 0.00 | 0.00 | 83 | 1011.8 |
| 20260506170601 | 17 | 227 | 1.6 | 4.8 | 0.00 | 0.00 | 0.00 | 82 | 1011.9 |
| 20260506170059 | 17 | 187 | 6.4 | 9.7 | 0.00 | 0.00 | 0.00 | 83 | 1012.3 |
| 20260506165557 | 17 | 212 | 1.6 | 3.2 | 0.00 | 0.00 | 0.00 | 84 | 1012.2 |
| 20260506165053 | 17 | 178 | 1.6 | 6.4 | 0.00 | 0.00 | 0.00 | 84 | 1012.6 |
| 20260506164550 | 17 | 236 | 1.6 | 6.4 | 0.00 | 0.00 | 0.00 | 83 | 1012.6 |
| 20260506164047 | 17 | 219 | 0.0 | 3.2 | 0.00 | 0.00 | 0.00 | 83 | 1013.0 |
| 20260506163543 | 17 | 233 | 0.0 | 4.8 | 0.00 | 0.00 | 0.00 | 82 | 1012.9 |
| 20260506163039 | 17 | 234 | 0.0 | 4.8 | 0.00 | 0.00 | 0.00 | 80 | 1012.8 |
| 20260506162536 | 17 | 227 | 1.6 | 3.2 | 0.00 | 0.00 | 0.00 | 80 | 1013.1 |
| 20260506162033 | 17 | 292 | 1.6 | 4.8 | 0.00 | 0.00 | 0.00 | 79 | 1013.0 |
| 20260506161530 | 17 | 230 | 1.6 | 6.4 | 0.00 | 0.00 | 0.00 | 78 | 1013.0 |
| 20260506161027 | 18 | 179 | 3.2 | 6.4 | 0.00 | 0.00 | 0.00 | 75 | 1012.9 |
| 20260506160525 | 18 | 36 | 3.2 | 4.8 | 0.00 | 0.00 | 0.00 | 73 | 1012.9 |
| 20260506160022 | 18 | 211 | 1.6 | 6.4 | 0.00 | 0.00 | 0.00 | 72 | 1013.0 |
| 20260506155520 | 19 | 156 | 3.2 | 4.8 | 0.00 | 0.00 | 0.00 | 71 | 1012.8 |
| 20260506153651 | 18 | 241 | 0.0 | 3.2 | 0.00 | 0.00 | 0.00 | 75 | 1012.9 |
| 20260506153149 | 18 | 267 | 3.2 | 6.4 | 0.00 | 0.00 | 0.00 | 74 | 1013.0 |
| 20260506152645 | 18 | 236 | 0.0 | 4.8 | 0.00 | 0.00 | 0.00 | 75 | 1012.9 |
| 20260506152143 | 18 | 213 | 1.6 | 3.2 | 0.00 | 0.00 | 0.00 | 74 | 1013.0 |
| 20260506151642 | 18 | 259 | 1.6 | 3.2 | 0.00 | 0.00 | 0.00 | 74 | 1013.0 |
| 20260506151138 | 18 | 230 | 4.8 | 6.4 | 0.00 | 0.00 | 0.00 | 73 | 1013.3 |
| 20260506150635 | 18 | 268 | 1.6 | 1.6 | 0.00 | 0.00 | 0.00 | 73 | 1013.1 |
| 20260506150132 | 18 | 246 | 1.6 | 9.7 | 0.00 | 0.00 | 0.00 | 72 | 1013.1 |
| 20260506145629 | 18 | 222 | 1.6 | 3.2 | 0.00 | 0.00 | 0.00 | 73 | 1012.7 |
| 20260506145125 | 18 | 217 | 1.6 | 3.2 | 0.00 | 0.00 | 0.00 | 72 | 1013.0 |
| 20260506144623 | 18 | 76 | 4.8 | 6.4 | 0.00 | 0.00 | 0.00 | 71 | 1013.0 |
| 20260506144119 | 18 | 74 | 1.6 | 6.4 | 0.00 | 0.00 | 0.00 | 71 | 1013.0 |
| 20260506143617 | 18 | 182 | 6.4 | 9.7 | 0.00 | 0.00 | 0.00 | 69 | 1013.2 |
| 20260506143115 | 19 | 322 | 1.6 | 3.2 | 0.00 | 0.00 | 0.00 | 69 | 1013.1 |
| 20260506142613 | 20 | 251 | 6.4 | 9.7 | 0.00 | 0.00 | 0.00 | 66 | 1013.1 |
| 20260506142111 | 20 | 188 | 3.2 | 6.4 | 0.00 | 0.00 | 0.00 | 64 | 1013.1 |
| 20260506141608 | 21 | 195 | 6.4 | 6.4 | 0.00 | 0.00 | 0.00 | 61 | 1013.0 |
| 20260506141107 | 22 | 207 | 8.0 | 20.9 | 0.00 | 0.00 | 0.00 | 57 | 1012.9 |
| 20260506140604 | 22 | 200 | 14.5 | 17.7 | 0.00 | 0.00 | 0.00 | 58 | 1013.0 |
| 20260506140101 | 22 | 237 | 3.2 | 14.5 | 0.00 | 0.00 | 0.00 | 58 | 1012.8 |
| 20260506135558 | 22 | 223 | 4.8 | 12.9 | 0.00 | 0.00 | 0.00 | 59 | 1013.0 |
| 20260506135054 | 22 | 237 | 6.4 | 24.1 | 0.00 | 0.00 | 0.00 | 58 | 1013.4 |
| 20260506134551 | 22 | 201 | 17.7 | 25.7 | 0.00 | 0.00 | 0.00 | 58 | 1013.3 |
| 20260506134046 | 22 | 216 | 4.8 | 12.9 | 0.00 | 0.00 | 0.00 | 60 | 1013.4 |
| 20260506133544 | 21 | 116 | 3.2 | 11.3 | 0.00 | 0.00 | 0.00 | 61 | 1013.0 |
| 20260506133041 | 21 | 64 | 6.4 | 12.9 | 0.00 | 0.00 | 0.00 | 62 | 1013.5 |
| 20260506132538 | 21 | 251 | 4.8 | 12.9 | 0.00 | 0.00 | 0.00 | 63 | 1013.6 |
| 20260506132035 | 21 | 275 | 8.0 | 14.5 | 0.00 | 0.00 | 0.00 | 63 | 1013.7 |
| 20260506131532 | 21 | 224 | 4.8 | 9.7 | 0.00 | 0.00 | 0.00 | 64 | 1013.5 |
| 20260506131028 | 21 | 232 | 6.4 | 20.9 | 0.00 | 0.00 | 0.00 | 64 | 1013.6 |
| 20260506130525 | 20 | 233 | 9.7 | 14.5 | 0.00 | 0.00 | 0.00 | 65 | 1013.5 |
| 20260506130023 | 20 | 246 | 9.7 | 14.5 | 0.00 | 0.00 | 0.00 | 66 | 1013.3 |
| 20260506125521 | 20 | 175 | 8.0 | 20.9 | 0.00 | 0.00 | 0.00 | 67 | 1013.5 |
| 20260506125018 | 19 | 185 | 6.4 | 9.7 | 0.00 | 0.00 | 0.00 | 69 | 1013.3 |
| 20260506124516 | 18 | 193 | 9.7 | 14.5 | 0.00 | 0.00 | 0.00 | 70 | 1013.5 |
| 20260506124014 | 18 | 235 | 8.0 | 17.7 | 0.00 | 0.00 | 0.00 | 71 | 1013.6 |
| 20260506123512 | 18 | 261 | 3.2 | 4.8 | 0.00 | 0.00 | 0.00 | 71 | 1013.5 |
| 20260506123009 | 18 | 221 | 6.4 | 12.9 | 0.00 | 0.00 | 0.00 | 70 | 1013.4 |
| 20260506122506 | 18 | 239 | 4.8 | 9.7 | 0.00 | 0.00 | 0.00 | 70 | 1013.6 |
| 20260506122004 | 18 | 206 | 8.0 | 11.3 | 0.00 | 0.00 | 0.00 | 70 | 1013.6 |
| 20260506121501 | 18 | 228 | 6.4 | 16.1 | 0.00 | 0.00 | 0.00 | 70 | 1013.7 |
| 20260506120957 | 18 | 194 | 6.4 | 17.7 | 0.00 | 0.00 | 0.00 | 70 | 1013.5 |
| 20260506120455 | 18 | 259 | 3.2 | 9.7 | 0.00 | 0.00 | 0.00 | 71 | 1013.7 |
| 20260506115952 | 18 | 213 | 3.2 | 11.3 | 0.00 | 0.00 | 0.00 | 70 | 1013.4 |
| 20260506115450 | 18 | 157 | 9.7 | 12.9 | 0.00 | 0.00 | 0.00 | 71 | 1013.6 |
| 20260506114948 | 18 | 255 | 4.8 | 6.4 | 0.00 | 0.00 | 0.00 | 72 | 1013.7 |
| 20260506114446 | 18 | 168 | 8.0 | 16.1 | 0.00 | 0.00 | 0.00 | 71 | 1013.7 |
| 20260506113944 | 18 | 221 | 4.8 | 9.7 | 0.00 | 0.00 | 0.00 | 72 | 1013.8 |
| 20260506113442 | 17 | 200 | 8.0 | 11.3 | 0.00 | 0.00 | 0.00 | 73 | 1014.0 |
| 20260506112938 | 17 | 252 | 6.4 | 12.9 | 0.00 | 0.00 | 0.00 | 74 | 1013.8 |
| 20260506112436 | 17 | 256 | 3.2 | 20.9 | 0.00 | 0.00 | 0.00 | 74 | 1013.9 |
| 20260506111932 | 17 | 248 | 3.2 | 20.9 | 0.00 | 0.00 | 0.00 | 74 | 1013.8 |
| 20260506111431 | 17 | 207 | 6.4 | 9.7 | 0.00 | 0.00 | 0.00 | 74 | 1013.9 |
| 20260506110927 | 17 | 193 | 6.4 | 22.5 | 0.00 | 0.00 | 0.00 | 74 | 1013.9 |
| 20260506110425 | 17 | 297 | 8.0 | 11.3 | 0.00 | 0.00 | 0.00 | 75 | 1013.6 |
| 20260506105921 | 17 | 231 | 12.9 | 14.5 | 0.00 | 0.00 | 0.00 | 75 | 1013.8 |
| 20260506105418 | 17 | 284 | 6.4 | 9.7 | 0.00 | 0.00 | 0.00 | 76 | 1014.0 |
| 20260506104915 | 17 | 135 | 1.6 | 6.4 | 0.00 | 0.00 | 0.00 | 76 | 1014.0 |
| 20260506104413 | 17 | 219 | 1.6 | 14.5 | 0.00 | 0.00 | 0.00 | 77 | 1014.1 |
| 20260506103911 | 17 | 258 | 6.4 | 12.9 | 0.00 | 0.00 | 0.00 | 78 | 1013.9 |
| 20260506103408 | 16 | 252 | 4.8 | 11.3 | 0.00 | 0.00 | 0.00 | 78 | 1013.8 |
| 20260506102905 | 16 | 238 | 4.8 | 12.9 | 0.00 | 0.00 | 0.00 | 78 | 1013.5 |
| 20260506102403 | 17 | 236 | 6.4 | 9.7 | 0.00 | 0.00 | 0.00 | 78 | 1013.6 |
| 20260506101900 | 16 | 174 | 4.8 | 20.9 | 0.00 | 0.00 | 0.00 | 78 | 1013.5 |
| 20260506101356 | 16 | 223 | 8.0 | 16.1 | 0.00 | 0.00 | 0.00 | 79 | 1013.7 |
| 20260506100854 | 16 | 260 | 6.4 | 9.7 | 0.00 | 0.00 | 0.00 | 79 | 1013.5 |
| 20260506100352 | 16 | 190 | 12.9 | 20.9 | 0.00 | 0.00 | 0.00 | 79 | 1013.6 |
| 20260506095850 | 16 | 207 | 1.6 | 9.7 | 0.00 | 0.00 | 0.00 | 79 | 1013.5 |
| 20260506095348 | 16 | 202 | 3.2 | 9.7 | 0.00 | 0.00 | 0.00 | 79 | 1013.6 |
| 20260506094844 | 16 | 179 | 6.4 | 12.9 | 0.00 | 0.00 | 0.00 | 79 | 1013.6 |
| 20260506094343 | 17 | 235 | 6.4 | 14.5 | 0.00 | 0.00 | 0.00 | 79 | 1013.5 |
| 20260506093840 | 16 | 199 | 4.8 | 12.9 | 0.00 | 0.00 | 0.00 | 79 | 1013.5 |
| 20260506093337 | 17 | 252 | 3.2 | 6.4 | 0.00 | 0.00 | 0.00 | 79 | 1013.7 |
| 20260506092835 | 17 | 165 | 6.4 | 12.9 | 0.00 | 0.00 | 0.00 | 78 | 1013.7 |
| 20260506092333 | 17 | 230 | 4.8 | 9.7 | 0.00 | 0.00 | 0.00 | 79 | 1013.4 |
| 20260506091829 | 17 | 238 | 4.8 | 11.3 | 0.00 | 0.00 | 0.00 | 79 | 1013.7 |
| 20260506091327 | 17 | 217 | 4.8 | 12.9 | 0.00 | 0.00 | 0.00 | 79 | 1013.7 |
| 20260506090825 | 17 | 216 | 8.0 | 12.9 | 0.00 | 0.00 | 0.00 | 79 | 1013.8 |
| 20260506090322 | 17 | 244 | 3.2 | 11.3 | 0.00 | 0.00 | 0.00 | 79 | 1013.7 |
| 20260506085818 | 17 | 221 | 6.4 | 11.3 | 0.00 | 0.00 | 0.00 | 78 | 1013.9 |
| 20260506085315 | 17 | 242 | 3.2 | 6.4 | 0.00 | 0.00 | 0.00 | 78 | 1013.9 |
| 20260506084812 | 17 | 257 | 6.4 | 11.3 | 0.00 | 0.00 | 0.00 | 78 | 1013.6 |
| 20260506084308 | 17 | 236 | 4.8 | 17.7 | 0.00 | 0.00 | 0.00 | 78 | 1013.9 |
| 20260506083805 | 17 | 198 | 4.8 | 9.7 | 0.00 | 0.00 | 0.00 | 78 | 1013.8 |
| 20260506083302 | 17 | 209 | 3.2 | 12.9 | 0.00 | 0.00 | 0.00 | 78 | 1014.1 |
| 20260506082759 | 17 | 238 | 3.2 | 12.9 | 0.00 | 0.00 | 0.00 | 78 | 1013.9 |
| 20260506082255 | 17 | 312 | 1.6 | 4.8 | 0.00 | 0.00 | 0.00 | 78 | 1014.0 |
| 20260506081753 | 17 | 214 | 1.6 | 3.2 | 0.00 | 0.00 | 0.00 | 77 | 1013.7 |
| 20260506081250 | 17 | 248 | 3.2 | 6.4 | 0.00 | 0.00 | 0.00 | 77 | 1013.9 |
| 20260506080748 | 17 | 249 | 3.2 | 11.3 | 0.00 | 0.00 | 0.00 | 77 | 1014.0 |
| 20260506080244 | 17 | 171 | 6.4 | 12.9 | 0.00 | 0.00 | 0.00 | 77 | 1013.8 |
| 20260506073228 | 17 | 249 | 3.2 | 6.4 | 0.00 | 0.00 | 0.00 | 76 | 1014.2 |
| 20260506072725 | 17 | 234 | 6.4 | 6.4 | 0.00 | 0.00 | 0.00 | 76 | 1014.2 |
| 20260506072223 | 17 | 139 | 4.8 | 11.3 | 0.00 | 0.00 | 0.00 | 76 | 1014.1 |
| 20260506071720 | 17 | 107 | 3.2 | 11.3 | 0.00 | 0.00 | 0.00 | 76 | 1014.3 |
| 20260506071218 | 17 | 217 | 4.8 | 4.8 | 0.00 | 0.00 | 0.00 | 76 | 1014.4 |
| 20260506070714 | 17 | 225 | 3.2 | 4.8 | 0.00 | 0.00 | 0.00 | 76 | 1014.2 |
| 20260506070212 | 17 | 224 | 3.2 | 4.8 | 0.00 | 0.00 | 0.00 | 76 | 1014.0 |
| 20260506062148 | 17 | 226 | 3.2 | 14.5 | 0.00 | 0.00 | 0.00 | 75 | 1013.9 |
| 20260506061644 | 17 | 210 | 4.8 | 9.7 | 0.00 | 0.00 | 0.00 | 75 | 1014.0 |
| 20260506061142 | 17 | 260 | 4.8 | 12.9 | 0.00 | 0.00 | 0.00 | 75 | 1013.9 |
| 20260506060640 | 17 | 209 | 8.0 | 16.1 | 0.00 | 0.00 | 0.00 | 75 | 1013.9 |
| 20260506060137 | 17 | 213 | 9.7 | 12.9 | 0.00 | 0.00 | 0.00 | 75 | 1014.1 |
| 20260506051109 | 18 | 220 | 6.4 | 12.9 | 0.00 | 0.00 | 0.00 | 72 | 1014.3 |
| 20260506050607 | 18 | 260 | 6.4 | 6.4 | 0.00 | 0.00 | 0.00 | 72 | 1014.4 |
| 20260506050104 | 18 | 211 | 4.8 | 6.4 | 0.00 | 0.00 | 0.00 | 72 | 1014.4 |
| 20260506045057 | 18 | 250 | 3.2 | 9.7 | 0.00 | 0.00 | 0.00 | 71 | 1014.3 |
| 20260506044556 | 18 | 222 | 1.6 | 4.8 | 0.00 | 0.00 | 0.00 | 71 | 1014.3 |
| 20260506044052 | 18 | 258 | 6.4 | 12.9 | 0.00 | 0.00 | 0.00 | 71 | 1014.6 |
| 20260506043549 | 18 | 214 | 4.8 | 9.7 | 0.00 | 0.00 | 0.00 | 70 | 1014.3 |
| 20260506043047 | 18 | 181 | 3.2 | 11.3 | 0.00 | 0.00 | 0.00 | 69 | 1014.5 |
| 20260506042546 | 18 | 213 | 4.8 | 9.7 | 0.00 | 0.00 | 0.00 | 69 | 1014.5 |
| 20260506042044 | 18 | 240 | 3.2 | 14.5 | 0.00 | 0.00 | 0.00 | 69 | 1014.5 |
| 20260506041542 | 18 | 235 | 1.6 | 9.7 | 0.00 | 0.00 | 0.00 | 69 | 1014.5 |
| 20260506041038 | 18 | 237 | 3.2 | 9.7 | 0.00 | 0.00 | 0.00 | 69 | 1014.5 |
| 20260506040536 | 18 | 262 | 4.8 | 9.7 | 0.00 | 0.00 | 0.00 | 68 | 1014.5 |
| 20260506040032 | 18 | 233 | 3.2 | 4.8 | 0.00 | 0.00 | 0.00 | 68 | 1014.6 |
| 20260506035529 | 18 | 231 | 6.4 | 11.3 | 0.00 | 0.00 | 0.00 | 68 | 1014.4 |
| 20260506035026 | 18 | 237 | 6.4 | 9.7 | 0.00 | 0.00 | 0.00 | 68 | 1014.7 |
| 20260506034524 | 19 | 209 | 9.7 | 16.1 | 0.00 | 0.00 | 0.00 | 67 | 1014.7 |
| 20260506034020 | 19 | 239 | 6.4 | 24.1 | 0.00 | 0.00 | 0.00 | 67 | 1014.6 |
| 20260506033518 | 19 | 196 | 6.4 | 9.7 | 0.00 | 0.00 | 0.00 | 67 | 1014.5 |
| 20260506033015 | 19 | 232 | 4.8 | 12.9 | 0.00 | 0.00 | 0.00 | 67 | 1014.4 |
| 20260506032512 | 19 | 256 | 3.2 | 6.4 | 0.00 | 0.00 | 0.00 | 66 | 1014.7 |
| 20260506032008 | 19 | 229 | 4.8 | 14.5 | 0.00 | 0.00 | 0.00 | 66 | 1014.6 |
| 20260506031506 | 19 | 211 | 3.2 | 17.7 | 0.00 | 0.00 | 0.00 | 66 | 1014.5 |